Cortez, CO

6:55 PM MDT on October 17, 2017 (GMT -0600)
Cortez Municipal

Weather History for KCEZ - February, 2012

Change the Weather History Date:

Wednesday, February 22, 2012

  Actual Average Record
Temperature  
Mean Temperature 37 °F 34 °F  
Max Temperature 51 °F 48 °F 62 °F (2017)
Min Temperature 22 °F 19 °F 6 °F (2006)
Degree Days  
Heating Degree Days 28 31  
Month to date heating degree days 709 741  
Since 1 July heating degree days 4318 4546  
Cooling Degree Days 0 0  
Month to date cooling degree days 0  
Year to date cooling degree days 0  
Moisture  
Dew Point 25 °F    
Average Humidity 64    
Maximum Humidity 88    
Minimum Humidity 39    
Precipitation  
Precipitation 0.00 in 0.04 in 0.62 in (2015)
Month to date precipitation 0.72 0.70  
Year to date precipitation 1.46 1.71  
Sea Level Pressure  
Sea Level Pressure 30.04 in    
Wind  
Wind Speed 7 mph (NNE)    
Max Wind Speed 16 mph    
Max Gust Speed 20 mph    
Visibility 10 miles    
Events      
T = Trace of Precipitation, MM = Missing Value Source: NWS Daily Summary

Daily Weather History Graph

Daily Weather History Graph

Search for Another Location

Airport or City:

Trip Planner

Search our weather history database for the weather conditions in past years. The results will help you decide how hot, cold, wet, or windy it might be!

Date:

Astronomy

Feb. 22, 2012 Rise Set
Actual Time 6:55 AM MST 6:01 PM MST
Civil Twilight 6:29 AM MST 6:27 PM MST
Nautical Twilight 5:58 AM MST 6:57 PM MST
Astronomical Twilight 5:28 AM MST 7:28 PM MST
Moon 6:57 AM MST (2/22) 7:08 PM MST (2/22)
Length of Visible Light 11h 58m
Length of Day
11h 05m
New Moon, 1% of the Moon is Illuminated
Feb 22
New Moon
Feb 29
First Quarter
Mar 8
Full
Mar 14
Last Quarter
Mar 22
New

Hourly Weather History & Observations

Time (MST) Temp. Windchill Dew Point Humidity Pressure Visibility Wind Dir Wind Speed Gust Speed Precip Events Conditions
12:53 AM 25.0 °F 16.3 °F 21.0 °F 85% 30.19 in 10.0 mi ENE 8.1 mph - N/A   Clear
1:53 AM 25.0 °F 18.1 °F 19.9 °F 81% 30.18 in 10.0 mi ENE 5.8 mph - N/A   Clear
2:53 AM 24.1 °F 18.2 °F 19.9 °F 84% 30.15 in 10.0 mi East 4.6 mph - N/A   Clear
3:53 AM 24.1 °F 18.2 °F 19.9 °F 84% 30.15 in 10.0 mi ENE 4.6 mph - N/A   Clear
4:53 AM 23.0 °F 18.4 °F 19.0 °F 85% 30.12 in 10.0 mi ENE 3.5 mph - N/A   Clear
5:53 AM 24.1 °F 19.7 °F 19.0 °F 81% 30.17 in 10.0 mi East 3.5 mph - N/A   Clear
6:53 AM 23.0 °F 15.8 °F 19.0 °F 85% 30.19 in 10.0 mi ENE 5.8 mph - N/A   Clear
7:53 AM 27.0 °F - 21.9 °F 81% 30.18 in 10.0 mi Calm Calm - N/A   Clear
9:53 AM 41.0 °F 39.0 °F 27.0 °F 57% 30.12 in 10.0 mi WSW 3.5 mph - N/A   Clear
10:53 AM 46.9 °F - 28.0 °F 48% 30.09 in 10.0 mi WNW 6.9 mph - N/A   Clear
11:53 AM 48.9 °F - 30.0 °F 48% 30.07 in 10.0 mi WNW 11.5 mph - N/A   Clear
12:53 PM 48.9 °F - 28.9 °F 46% 30.04 in 10.0 mi WNW 13.8 mph - N/A   Clear
1:53 PM 50.0 °F - 28.9 °F 44% 30.00 in 10.0 mi WNW 12.7 mph - N/A   Clear
2:53 PM 51.1 °F - 28.0 °F 41% 29.98 in 10.0 mi West 10.4 mph - N/A   Clear
3:53 PM 50.0 °F - 27.0 °F 41% 29.96 in 10.0 mi WSW 9.2 mph - N/A   Clear
4:53 PM 50.0 °F - 26.1 °F 39% 29.96 in 10.0 mi NW 9.2 mph - N/A   Clear
5:53 PM 44.1 °F 41.5 °F 27.0 °F 51% 29.97 in 10.0 mi NNE 4.6 mph - N/A   Clear
6:53 PM 39.0 °F 35.7 °F 28.9 °F 67% 29.99 in 10.0 mi NE 4.6 mph - N/A   Clear
7:53 PM 34.0 °F 28.0 °F 28.9 °F 82% 29.96 in 10.0 mi ENE 6.9 mph - N/A   Clear
8:53 PM 34.0 °F 27.2 °F 28.9 °F 82% 29.93 in 10.0 mi NE 8.1 mph - N/A   Clear
9:53 PM 33.1 °F 26.1 °F 28.0 °F 82% 29.89 in 10.0 mi ENE 8.1 mph - N/A   Clear
10:53 PM 32.0 °F 28.7 °F 28.0 °F 85% 29.84 in 10.0 mi East 3.5 mph - N/A   Clear
11:53 PM 30.9 °F 24.3 °F 27.0 °F 85% 29.81 in 10.0 mi NE 6.9 mph - N/A   Clear